Location: Brookview Estates
(36.0476°N, 86.6931°W)
Time: 05:02:46
(UTC+00:00)

Daily predictions for brighter satellites

Satellite Brightness Start Highest point End
(mag) Time Altitude Azimuth Time Altitude Azimuth Time Altitude Azimuth
Meteor 2-5 Rocket 4.2 00:23:16 10° N 00:28:33 40° ENE 00:33:44 10° SE
NOSS 3-1 (C) 4.4 00:20:48 10° NNW 00:28:43 83° WSW 00:37:33 10° SSE
Cosmos 1420 Rocket 4.4 00:24:01 10° NNW 00:29:16 72° WSW 00:34:26 10° S
STARLINK-1239 4.1 00:25:42 10° WSW 00:29:41 62° NW 00:33:42 10° NE
OAO 2 Rocket 3.7 00:24:43 10° W 00:29:49 60° SSW 00:34:47 10° ESE
Cosmos 1745 Rocket 4.4 00:24:00 10° N 00:29:58 43° ENE 00:35:50 10° SSE
STARLINK-1240 4.3 00:30:20 10° WSW 00:34:18 56° NW 00:38:18 10° NE
Cosmos 2278 Rocket 2.2 00:28:51 10° NNW 00:34:31 68° ENE 00:40:09 10° SSE
SeaSat 1 4.5 00:32:29 10° N 00:36:51 32° WNW 00:41:11 10° WSW
ARGOS 4.3 00:32:51 10° ESE 00:37:03 24° ENE 00:41:16 10° NNE
STARLINK-1216 4.4 00:35:03 10° WSW 00:38:59 51° NW 00:42:56 10° NE
Cosmos 1733 3.5 00:35:56 10° SSE 00:39:29 41° E 00:43:02 10° NNE
Cosmos 1939 Rocket 3.2 00:35:54 10° S 00:39:53 71° W 00:43:49 10° NNW
USA 234 3.3 00:35:04 10° NE 00:41:32 61° SE 00:47:58 10° SSW
Cosmos 1553 Rocket 4.1 00:36:26 10° S 00:42:30 85° W 00:48:37 10° N
Meteor 1-24 Rocket 4.1 00:37:54 10° N 00:43:00 38° ENE 00:47:56 10° SE
ADEOS Rocket 3.6 00:38:42 10° N 00:45:18 67° WNW 00:51:12 10° SSW
Cosmos 304 Rocket 4.4 00:45:01 10° N 00:49:25 36° ENE 00:53:48 10° SE
Cosmos 1674 2.5 00:46:33 10° N 00:50:17 72° E 00:53:59 10° SSE
BREEZE-M DEB (TANK) 3.6 00:40:18 10° NW 00:51:40 54° NNE 00:54:24 15° E
CZ-2C R/B 3.7 00:49:38 10° SE 00:54:14 34° ENE 00:58:38 10° N
KORONAS-FOTON 3.7 00:50:39 10° N 00:54:28 74° E 00:58:14 10° SSE
SL-14 R/B 4.3 00:51:08 10° NNE 00:54:34 26° ENE 00:57:33 12° SE
CZ-3 Stage 3 4.1 00:49:07 10° SW 00:54:58 47° SE 01:23:36 10° E
CZ-2D R/B 4.5 00:52:34 10° S 00:56:14 44° W 00:59:54 10° NNW
Cosmos 2315 Rocket 4.4 00:50:53 10° SSE 00:56:43 42° E 01:02:37 10° NNE
Cosmos 1766 3.5 00:52:45 10° SSW 00:56:44 74° W 01:00:43 10° N
Cosmos 494 Rocket 4.2 00:53:40 10° SSW 00:58:47 76° WNW 01:03:59 10° NNE
USA 186 2.8 00:56:14 12° SE 00:58:53 30° ENE 01:01:55 10° NNE
IRS-1A Rocket 4.5 00:53:44 10° SE 00:59:09 52° ENE 01:04:41 10° N
Cosmos 371 Rocket 3.5 00:54:19 10° NNW 00:59:09 77° WSW 01:03:58 10° S
Cosmos 2369 Rocket 4.2 01:01:10 10° NE 01:01:32 10° NE 01:01:53 10° NE
Meteor 1-22 Rocket 4.0 00:58:10 10° S 01:03:30 84° E 01:08:47 10° N
YAOGAN 1 4.5 01:03:50 10° SSW 01:07:43 33° W 01:11:37 10° NNW
USA 81 4.0 01:03:12 10° N 01:08:29 85° E 01:13:45 10° S
STARLINK-1118 2.7 01:06:31 10° NNW 01:08:34 35° NE 01:08:50 34° ENE
Meteor 2-8 Rocket 4.4 01:03:31 10° S 01:09:39 87° E 01:15:50 10° N
Cosmos 1455 Rocket 3.1 01:06:20 10° S 01:10:39 80° W 01:15:01 10° N
Cosmos 1331 Rocket 4.0 01:05:38 10° N 01:10:44 60° ENE 01:15:33 11° SSE
Cosmos 1953 3.9 01:16:15 17° ENE 01:16:15 17° ENE 01:17:56 10° NE
OAO 3 Copernicus 4.3 01:10:47 10° W 01:15:49 79° S 01:18:53 24° E
Cosmos 1626 2.4 01:13:20 10° N 01:16:54 45° E 01:18:49 23° SE
Ariane Rocket 2.9 01:14:19 10° SSE 01:19:22 86° E 01:24:29 10° NNW
Meteor 2-15 4.4 01:15:44 10° S 01:21:40 60° E 01:27:36 10° NNE
Cosmos 1892 Rocket 4.1 01:18:31 10° NNW 01:22:57 62° W 01:27:21 10° S
Cosmos 1626 Rocket 4.0 01:20:13 10° N 01:24:22 40° E 01:25:53 30° SE
Cosmos 1943 Rocket 3.5 01:22:27 10° N 01:26:34 21° ENE 01:27:31 20° ENE
Cosmos 1709 Rocket 3.9 01:21:27 10° N 01:27:37 68° E 01:33:42 10° SSE
Delta 2 Rocket 4.1 01:24:35 10° W 01:29:09 56° SSW 01:31:28 30° SE
ARGOS Delta rocket 4.2 01:25:33 10° S 01:30:30 71° W 01:35:46 10° NNW
Cosmos 1110 Rocket 4.1 01:26:38 10° NNW 01:31:53 75° WSW 01:37:00 10° S
Okean 1-7 Rocket 4.2 01:27:38 10° NNW 01:31:56 56° W 01:36:13 10° S
Cosmos 1602 Rocket 4.1 01:27:53 10° N 01:32:03 38° E 01:32:39 36° E
BREEZE-M DEB (TANK) 3.9 01:24:39 10° WSW 01:32:08 42° NW 01:34:45 12° NNE
ATLAS 5 CENTAUR R/B 4.2 01:28:50 10° SSW 01:34:16 23° SE 01:36:57 22° SE
STARLINK-1094 4.5 01:32:34 10° NNW 01:36:15 33° NE 01:36:52 31° NE
SL-16 R/B 2.7 01:30:52 10° SSW 01:36:27 61° WNW 01:42:04 10° NNE
Cosmos 1544 Rocket 4.4 01:33:54 10° SSW 01:38:09 52° W 01:42:28 10° N
GOES 2 Rocket 4.4 01:35:18 10° WSW 01:39:05 29° S 01:40:16 26° SSE
STARLINK-1117 4.3 01:37:04 10° NNW 01:40:48 36° NE 01:41:13 35° NE
STARLINK-1066 3.5 01:38:13 10° NW 01:40:58 45° NNE 01:40:58 45° NNE
STARLINK-1081 3.5 01:38:41 10° NW 01:41:20 44° NNE 01:41:20 44° NNE
Aureole 3 3.3 01:41:27 52° ESE 01:41:52 55° E 01:46:19 10° NNE
STARLINK-1070 3.5 01:39:08 10° NW 01:41:46 45° NNE 01:41:46 45° NNE
STARLINK-1069 3.5 01:39:32 10° NW 01:42:14 46° NNE 01:42:14 46° NNE
STARLINK-1085 3.5 01:39:58 10° NW 01:42:40 46° NNE 01:42:40 46° NNE
STARLINK-1086 3.5 01:40:29 10° NW 01:43:05 45° N 01:43:05 45° N
STARLINK-1095 3.5 01:40:55 10° NW 01:43:30 45° N 01:43:30 45° N
STARLINK-1077 3.6 01:41:21 10° NW 01:43:55 45° N 01:43:55 45° N
STARLINK-1075 3.6 01:41:49 10° NW 01:44:22 45° N 01:44:22 45° N
STARLINK-1093 3.5 01:42:13 10° NW 01:44:51 47° N 01:44:51 47° N
H-2A R/B 2.4 01:40:03 10° S 01:45:21 65° W 01:50:34 10° NNW
STARLINK-1078 4.2 01:41:34 10° NNW 01:45:22 39° NE 01:45:36 38° NE
STARLINK-1074 3.5 01:42:40 10° NW 01:45:16 47° N 01:45:16 47° N
STARLINK-1087 3.6 01:43:09 10° NW 01:45:40 45° N 01:45:40 45° N
STARLINK-1088 3.6 01:43:36 10° NW 01:46:06 45° N 01:46:06 45° N
STARLINK-1115 3.6 01:44:01 10° NW 01:46:35 47° N 01:46:35 47° N
STARLINK-1076 3.6 01:44:27 10° NW 01:47:00 47° N 01:47:00 47° N
STARLINK-1092 3.6 01:44:55 10° NW 01:47:27 46° N 01:47:27 46° N
STARLINK-1080 3.7 01:45:24 10° NW 01:47:50 45° N 01:47:50 45° N
STARLINK-1090 3.7 01:45:50 10° NW 01:48:16 45° N 01:48:16 45° N
STARLINK-1089 3.7 01:46:17 10° NW 01:48:42 45° N 01:48:42 45° N
STARLINK-1107 3.7 01:46:45 10° NW 01:49:08 45° NNW 01:49:08 45° NNW
STARLINK-1108 4.1 01:46:05 10° NW 01:49:56 42° NE 01:49:59 42° NE
NOSS 3-3 (A) 3.8 01:45:35 10° SSW 01:51:05 55° ESE 01:57:10 10° NE
NOSS 3-3 (C) 3.8 01:45:43 10° SSW 01:51:12 54° ESE 01:57:16 10° NE
CZ-2C R/B 3.8 01:46:49 10° N 01:51:35 78° WNW 01:56:14 10° SSW
DMSP B5D2-2 3.9 01:47:18 10° NNE 01:52:30 71° ESE 01:57:42 10° S
STARLINK-1071 4.1 01:50:36 10° NW 01:54:21 46° NNE 01:54:21 46° NNE
STARLINK-1124 4.0 01:53:01 10° NW 01:56:53 49° NNE 01:56:53 49° NNE
Cosmos 1603 3.7 01:52:42 10° S 01:58:10 53° ESE 02:03:37 10° NNE
STARLINK-1110 4.0 01:55:07 10° NW 01:58:44 49° NNE 01:58:44 49° NNE
Cosmos 1470 3.9 01:56:16 10° SSW 01:59:56 42° W 02:03:38 10° N
Abrixas rocket 3.9 01:58:31 10° W 02:00:53 29° NW 02:00:53 29° NW
SJ-6B 3.9 02:04:28 27° SSW 02:06:12 44° W 02:10:08 10° NNW
Cosmos 2297 3.9 02:00:59 10° NNW 02:06:38 71° WSW 02:08:52 38° S
STARLINK-1122 4.1 02:04:20 10° NW 02:07:38 51° N 02:07:38 51° N
Cosmos 1302 Rocket 4.1 02:04:08 10° NNW 02:09:24 74° WSW 02:10:51 48° S
STARLINK-1126 4.3 02:08:59 10° NW 02:12:08 49° NNW 02:12:08 49° NNW
Resurs 1-3 3.6 02:14:16 74° NNW 02:14:16 74° NNW 02:18:18 10° NNW
SL-08 RB Rocket 4.5 02:13:19 34° SSW 02:14:52 49° W 02:19:16 10° NNW
Cosmos 2251 Rocket 3.5 02:09:32 10° SSW 02:14:52 83° WNW 02:20:17 10° NNE
CZ-2C R/B 2.5 02:11:24 10° N 02:16:35 82° WNW 02:18:46 36° SSW
ARGOS 4.4 02:12:04 10° SSW 02:17:02 39° W 02:22:05 10° NNW
STARLINK-1082 4.4 02:13:33 10° NW 02:16:32 47° NNW 02:16:32 47° NNW
ATLAS 2AS CENTAUR R/B 4.4 02:13:38 10° N 02:18:44 19° NE 02:20:00 18° NE
Resurs 01 Rocket 2.4 02:23:19 44° N 02:23:19 44° N 02:26:22 10° N
Cosmos 2184 Rocket 3.8 02:24:57 10° N 02:31:18 83° E 02:31:29 81° ESE
Cosmos 2369 Rocket 2.8 02:40:51 10° NNW 02:45:05 50° N 02:45:05 50° N
Cosmos 2154 Rocket 4.4 02:45:55 10° N 02:50:48 55° NNE 02:50:48 55° NNE
Nadezhda 1 Rocket 4.4 03:04:26 61° WNW 03:04:26 61° WNW 03:10:29 10° N
Cosmos 1943 Rocket 3.3 03:05:14 10° NNW 03:09:04 39° WNW 03:09:04 39° WNW
ATLAS 2AS CENTAUR R/B 4.2 04:03:31 10° NNW 04:07:26 34° NNW 04:07:26 34° NNW
Cosmos 2219 Rocket 4.1 08:20:15 10° N 08:24:54 26° ENE 08:29:31 10° ESE
ARIANE 5 R/B 4.3 08:25:20 10° NNE 08:27:43 28° NNE 08:27:43 28° NNE
ADEOS II 4.0 08:28:55 10° N 08:30:53 23° N 08:30:53 23° N
Cosmos 2034 Rocket 4.4 08:32:12 10° N 08:37:26 59° NNE 08:37:26 59° NNE
USA 267 4.3 08:33:26 10° NNE 08:38:50 33° NNW 08:38:50 33° NNW
SJ 16-02 3.7 08:43:35 19° NNE 08:43:35 19° NNE 08:44:52 10° NNE
Cosmos 2333 Rocket 3.1 08:45:22 10° N 08:50:48 46° ENE 08:56:12 10° SE
Lacrosse 5 rocket 3.9 08:54:18 17° NNE 08:54:18 17° NNE 08:55:15 10° NNE
BREEZE M DEB (TANK) 4.4 08:59:58 45° SE 08:59:58 45° SE 09:06:51 10° SE
IDEFIX/ARIANE 42P 2.8 08:58:43 10° NNE 09:03:31 64° ENE 09:03:31 64° ENE
USA 234 3.4 09:04:06 10° SE 09:10:36 72° NE 09:17:06 10° NW
Cosmos 1937 Rocket 3.7 09:15:16 62° N 09:15:16 62° N 09:19:42 10° NNE
Cosmos 1898 Rocket 4.3 09:17:15 39° NNW 09:17:15 39° NNW 09:20:50 10° N
MSX 4.2 09:12:34 10° NNE 09:18:17 63° E 09:20:33 37° SSE
Cosmos 2242 Rocket 4.2 09:20:09 51° N 09:20:09 51° N 09:23:35 10° N
Cosmos 2237 Rocket 4.3 09:14:22 10° N 09:19:06 27° ENE 09:23:49 10° ESE
SL-4 R/B 4.0 09:18:06 22° N 09:19:23 26° NNE 09:22:57 10° E
CZ-4B R/B 3.3 09:22:36 28° NNE 09:22:36 28° NNE 09:24:37 10° N
STARLINK-76 4.5 09:23:19 46° NE 09:23:19 46° NE 09:26:14 10° NE
STARLINK-23 4.4 09:24:55 48° NE 09:24:55 48° NE 09:27:54 10° NE
STARLINK-1028 4.2 09:26:20 54° NE 09:26:20 54° NE 09:29:36 10° NE
STARLINK-32 4.3 09:26:32 50° NE 09:26:32 50° NE 09:29:34 10° NE
STARLINK-40 4.2 09:28:07 51° NE 09:28:07 51° NE 09:31:13 10° NE
Timation 2 Rocket 4.1 09:27:08 56° W 09:28:05 62° WNW 09:34:54 10° NNE
STARLINK-44 4.2 09:29:42 53° NNE 09:29:42 53° NNE 09:32:51 10° NE
ADEOS 4.4 09:23:58 10° NNE 09:29:00 47° E 09:32:42 18° SSE
STARLINK-1007 4.0 09:30:19 60° NNE 09:30:19 60° NNE 09:33:50 10° NE
STARLINK-1021 4.0 09:31:07 60° NNE 09:31:07 60° NNE 09:34:34 10° NE
STARLINK-37 4.2 09:31:26 52° NNE 09:31:26 52° NNE 09:34:37 10° NE
Cosmos 2219 3.3 09:29:51 44° S 09:31:43 73° ESE 09:37:27 10° NNE
STARLINK-36 4.0 09:32:52 55° NNE 09:32:52 55° NNE 09:36:09 10° NE
STARLINK-68 4.1 09:34:42 52° N 09:34:42 52° N 09:37:59 10° NE
STARLINK-1019 3.9 09:35:54 62° N 09:35:54 62° N 09:39:33 10° NE
COBE Rocket 3.7 09:34:56 66° SSW 09:35:31 77° WSW 09:40:21 10° NNW
STARLINK-63 4.0 09:36:10 54° N 09:36:10 54° N 09:39:33 10° NE
Cosmos 2297 Rocket 2.7 09:33:42 27° S 09:36:39 58° ESE 09:42:13 10° NNE
STARLINK-35 3.9 09:37:39 57° N 09:37:39 57° N 09:41:07 10° NE
STARLINK-51 3.9 09:39:14 57° N 09:39:14 57° N 09:42:45 10° NE
COSMOS 2441 4.3 09:34:19 10° NNE 09:39:07 86° ESE 09:40:26 49° S
STARLINK-1012 3.8 09:40:42 62° NNW 09:40:42 62° NNW 09:44:32 10° NE
STARLINK-30 3.9 09:40:49 57° N 09:40:49 57° N 09:44:24 10° NE
Cosmos 372 Rocket 4.0 09:38:45 40° S 09:40:41 78° ESE 09:45:57 10° NNE
STARLINK-72 3.8 09:42:24 56° NNW 09:42:24 56° NNW 09:46:02 10° NE
STARLINK-50 3.8 09:44:01 55° NNW 09:44:01 55° NNW 09:47:42 10° NE
STARLINK-59 3.9 09:45:43 51° NNW 09:45:43 51° NNW 09:49:26 10° NE
STARLINK-56 3.9 09:47:11 52° NNW 09:47:11 52° NNW 09:50:59 10° NE
STARLINK-73 3.9 09:48:46 51° NW 09:48:46 51° NW 09:52:38 10° NE
CENTAUR R/B 4.1 09:44:44 10° SSE 09:49:27 28° ESE 09:54:45 10° NE
STARLINK-38 3.9 09:50:23 49° NW 09:50:23 49° NW 09:54:17 10° NE
STARLINK-1026 3.9 09:50:17 52° NW 09:50:24 52° NW 09:54:27 10° NE
PSLV R/B 3.4 09:47:02 10° N 09:51:22 70° WNW 09:52:11 55° SW
Meteor 1-19 Rocket 4.4 09:45:53 10° S 09:51:38 72° E 09:57:15 10° NNE
STARLINK-65 3.9 09:51:57 47° NW 09:52:00 47° NW 09:55:55 10° NE
COSMOS 2428 2.7 09:48:06 10° NNW 09:53:40 58° WSW 09:59:12 10° S
STARLINK-53 4.0 09:53:39 43° NW 09:53:46 43° NW 09:57:38 10° NE
STARLINK-1013 4.0 09:55:04 46° NW 09:55:23 47° NW 09:59:25 10° NE
STARLINK-1009 4.1 09:59:50 40° WNW 10:00:22 43° NW 10:04:21 10° NE
Hubble Space Telescope 3.1 10:02:23 12° S 10:02:23 12° S 10:03:11 10° SSE
Cosmos 2227 Rocket 2.2 09:57:43 21° SSW 10:01:36 85° ESE 10:07:16 10° NNE
Cosmos 1782 Rocket 3.4 09:57:31 10° N 10:01:53 88° E 10:06:12 10° S
Cosmos 1703 Rocket 4.0 10:04:21 39° W 10:04:43 40° W 10:08:58 10° N
STARLINK-1015 4.3 10:04:35 36° WNW 10:05:20 39° NW 10:09:15 10° NNE
ATLAS CENTAUR R/B 2.3 10:06:15 27° NE 10:06:15 27° NE 10:07:17 10° NE
SeaSat 1 2.3 10:02:56 10° SSE 10:07:52 80° WSW 10:12:49 10° NNW
Cosmos 2219 Rocket 2.6 10:03:46 10° NW 10:08:54 38° WSW 10:14:00 10° S
STARLINK-24 4.5 10:08:10 30° WNW 10:08:56 33° NW 10:12:36 10° NNE
STARLINK-1016 4.5 10:09:24 31° WNW 10:10:22 36° NW 10:14:12 10° NNE
STARLINK-1014 4.3 10:10:29 31° WNW 10:11:20 35° NW 10:15:00 10° NNE
Cosmos 2221 Rocket 3.8 10:07:57 10° S 10:12:24 71° E 10:16:51 10° NNE
Meteor 1-18 Rocket 4.3 10:07:53 17° SSW 10:12:24 59° W 10:18:09 10° N
Cosmos 1634 Rocket 4.3 10:10:27 10° NNW 10:16:11 42° W 10:21:53 10° SSW
STARLINK-1024 4.3 10:15:01 20° SSW 10:17:36 51° SE 10:21:38 10° NE
Cosmos 1980 3.6 10:14:11 10° NNW 10:19:52 88° WSW 10:25:31 10° SSE
STARLINK-1035 4.1 10:19:47 19° SSW 10:22:35 58° SE 10:26:39 10° NE
Okean 3 3.4 10:18:25 10° S 10:22:36 90° ESE 10:26:47 10° N
ALOS 3.8 10:18:27 10° NNE 10:22:47 37° E 10:27:06 10° SSE
Meteor 1-31 Rocket 2.9 10:21:20 10° NNE 10:25:17 79° ESE 10:29:12 10° S
Sich 1 Rocket 3.4 10:21:29 10° N 10:25:52 73° W 10:30:12 10° S
SJ-6F 4.4 10:21:54 10° N 10:25:58 61° WNW 10:30:02 10° SSW
TIMED 4.5 10:22:58 10° NNW 10:27:21 89° ENE 10:31:42 10° SSE
Meteor 1-4 Rocket 4.3 10:23:59 10° SSE 10:27:25 37° E 10:30:54 10° NNE
STARLINK-1032 3.9 10:24:33 18° SSW 10:27:31 65° SE 10:31:37 10° NE
ASTRO E2 3.3 10:26:02 25° SW 10:27:52 42° S 10:31:37 10° ESE
PSLV R/B 4.0 10:24:50 10° SSE 10:29:02 89° ENE 10:33:16 10° NNW
Chunghua 1 4.4 10:29:03 26° W 10:31:00 76° S 10:34:42 10° E
CZ-2C R/B 2.6 10:26:53 10° N 10:31:15 44° WNW 10:35:20 11° SW
Cosmos 2082 3.7 10:26:49 10° SSW 10:32:30 90° E 10:38:15 10° NNE
STARLINK-1011 3.8 10:29:22 17° SW 10:32:30 73° SE 10:36:38 10° NE
SL-16 R/B 3.7 10:28:10 10° N 10:33:28 39° ENE 10:38:43 10° SE
Cosmos 2333 Rocket 3.3 10:30:34 10° NW 10:34:38 21° W 10:38:44 10° SSW
Cosmos 1674 Rocket 4.5 10:33:05 10° S 10:37:24 53° E 10:41:42 10° NNE
STARLINK-1036 3.6 10:34:09 15° SW 10:37:28 81° SE 10:41:38 10° NE
ATLAS 3B R/B 3.9 10:31:33 10° S 10:37:43 40° ESE 10:43:49 10° NE
Cosmos 2151 Rocket 4.3 10:33:59 10° N 10:38:20 57° E 10:42:38 10° SSE
Okean 2 Rocket 3.1 10:34:27 10° N 10:38:57 90° WNW 10:43:27 10° S
Okean 1-7 4.4 10:38:15 17° W 10:39:18 19° WNW 10:42:25 10° NNW
Cosmos 1544 3.1 10:36:20 10° NNW 10:39:53 55° W 10:43:27 10° S
USA 238 DEB 3.8 10:34:26 13° SW 10:40:13 56° NW 10:46:56 10° NNE
USA 238 3.8 10:34:31 13° SW 10:40:20 57° NW 10:47:03 10° NNE
STARLINK-1044 3.6 10:38:54 14° SW 10:42:26 89° ESE 10:46:35 10° NE
IDEFIX/ARIANE 42P 4.3 10:40:22 10° NW 10:42:52 14° WNW 10:44:21 12° W
GPS 2-04 Rocket1 2.8 10:42:35 17° W 10:45:21 52° SSW 10:48:55 10° ESE
STARLINK-1047 3.6 10:43:40 13° SW 10:47:23 82° NW 10:51:32 10° NE
Cosmos 1092 Rocket 4.3 10:41:30 10° S 10:47:49 78° E 10:54:10 10° N
Cosmos 1743 4.3 10:45:39 10° NW 10:48:06 16° W 10:49:48 13° WSW
BREEZE M DEB (TANK) 4.3 10:46:47 10° WNW 10:48:30 17° N 10:51:04 10° NE
STARLINK-1037 3.6 10:45:44 12° SW 10:49:31 78° NW 10:53:40 10° NE
STARLINK-1027 3.7 10:46:38 12° SW 10:50:30 72° NW 10:54:45 10° NE
USA 234 4.1 10:48:31 10° S 10:53:51 27° SW 10:59:14 10° WNW
Meteor 2-4 Rocket 4.1 10:49:33 10° SSW 10:55:15 50° WNW 11:01:02 10° N
Cosmos 1975 3.8 10:51:56 10° NNW 10:55:18 26° W 10:58:40 10° SSW
CZ-4B R/B 4.3 10:51:36 10° N 10:55:26 41° WNW 10:59:05 10° SW
STARLINK-1059 3.7 10:53:17 10° SW 10:57:23 66° NW 11:01:31 10° NE
FENGYUN 3A 3.7 10:52:04 10° NNE 10:57:30 87° ESE 11:02:53 10° SSW
Cosmos 1689 Rocket 4.0 10:56:16 10° SW 10:57:46 13° W 10:59:18 10° WNW
SL-4 R/B 2.3 10:55:10 10° WNW 10:59:09 49° SW 11:03:27 10° SSE
Cosmos 1356 3.5 10:58:05 10° N 11:01:32 84° E 11:04:56 10° S
Meteor 1-13 Rocket 4.3 10:56:12 10° SSW 11:02:00 65° W 11:07:43 10° N
STARLINK-1057 3.8 10:58:16 10° WSW 11:02:21 60° NW 11:06:27 10° NE
Cosmos 2237 Rocket 2.7 10:58:00 10° NW 11:03:13 39° WSW 11:08:25 10° S
STARLINK-1034 3.9 11:03:16 10° WSW 11:07:19 54° NW 11:11:23 10° NE
SKYMED 2 3.7 11:03:16 10° SSE 11:07:35 85° ENE 11:11:57 10° N
Cosmos 1300 Rocket 3.7 11:05:08 10° NNW 11:09:16 47° W 11:13:23 10° SSW
NOSS 3-2 (A) 4.2 11:05:01 10° WSW 11:10:09 34° NW 11:15:53 10° NNE
Cosmos 2026 Rocket 4.1 11:04:05 10° S 11:10:15 84° E 11:16:23 10° N
Nadezhda 4 Rocket 4.4 11:05:13 10° SSW 11:11:06 41° WNW 11:17:03 10° N
